When you browse on this site, cookies collect data to enhance your experience and personalize the content and advertising you see.
Visit our Privacy Policy to learn more. By continuing to use the site, you agree to this use of cookies and data.
  • In United Kingdom
  • List of Countries
  • For 7 days
  • Water Temperature
  • Weather Map
  • Weather Widgets
  • user-avatar
    Login

    Hourly Weather Anjar

    Today, 5 April, Sunday

    Time Temperature Precipitation Wind Pressure Humidity
    00:00 +32°C° 0 mm 5 mps 751 mmHg 33%
    01:00 +30°C° 0 mm 5 mps 751 mmHg 37%
    02:00 +30°C° 0 mm 5 mps 751 mmHg 41%
    03:00 +29°C° 0 mm 5 mps 751 mmHg 41%
    04:00 +29°C° 0 mm 4 mps 751 mmHg 42%
    05:00 +28°C° 0 mm 3 mps 751 mmHg 45%
    06:00 +29°C° 0 mm 4 mps 752 mmHg 44%
    07:00 +29°C° 0 mm 4 mps 752 mmHg 43%
    08:00 +29°C° 0 mm 5 mps 753 mmHg 41%
    09:00 +33°C° 0 mm 4 mps 753 mmHg 34%
    10:00 +35°C° 0 mm 4 mps 753 mmHg 26%
    11:00 +37°C° 0 mm 4 mps 753 mmHg 19%
    12:00 +38°C° 0 mm 3 mps 752 mmHg 17%
    13:00 +39°C° 0 mm 2 mps 752 mmHg 16%
    14:00 +40°C° 0 mm 1 mps 751 mmHg 15%
    15:00 +40°C° 0 mm 2 mps 751 mmHg 16%
    16:00 +39°C° 0 mm 3 mps 750 mmHg 16%
    17:00 +40°C° 0 mm 4 mps 750 mmHg 17%
    18:00 +39°C° 0 mm 5 mps 750 mmHg 19%
    19:00 +37°C° 0 mm 5 mps 751 mmHg 20%
    20:00 +36°C° 0 mm 6 mps 751 mmHg 22%
    21:00 +35°C° 0 mm 6 mps 751 mmHg 25%
    22:00 +34°C° 0 mm 5 mps 752 mmHg 28%
    23:00 +33°C° 0 mm 5 mps 752 mmHg 31%

    Tomorrow, 6 April, Monday

    Time Temperature Precipitation Wind Pressure Humidity
    00:00 +32°C° 0 mm 4 mps 751 mmHg 34%
    01:00 +30°C° 0 mm 4 mps 751 mmHg 38%
    02:00 +29°C° 0 mm 3 mps 751 mmHg 41%
    03:00 +29°C° 0 mm 3 mps 751 mmHg 44%
    04:00 +28°C° 0 mm 3 mps 750 mmHg 48%
    05:00 +27°C° 0 mm 2 mps 750 mmHg 51%
    06:00 +28°C° 0 mm 3 mps 751 mmHg 48%
    07:00 +29°C° 0 mm 3 mps 752 mmHg 45%
    08:00 +30°C° 0 mm 3 mps 752 mmHg 41%
    09:00 +32°C° 0 mm 2 mps 752 mmHg 35%
    10:00 +35°C° 0 mm 2 mps 752 mmHg 28%
    11:00 +36°C° 0 mm 1 mps 752 mmHg 21%
    12:00 +38°C° 0 mm 2 mps 752 mmHg 20%
    13:00 +39°C° 0 mm 3 mps 751 mmHg 20%
    14:00 +40°C° 0 mm 3 mps 750 mmHg 19%
    15:00 +41°C° 0 mm 4 mps 750 mmHg 17%
    16:00 +40°C° 0 mm 5 mps 749 mmHg 16%
    17:00 +40°C° 0 mm 6 mps 749 mmHg 15%
    18:00 +39°C° 0 mm 7 mps 749 mmHg 20%
    19:00 +36°C° 0 mm 7 mps 750 mmHg 25%
    20:00 +34°C° 0 mm 7 mps 750 mmHg 31%
    21:00 +33°C° 0 mm 6 mps 750 mmHg 33%
    22:00 +32°C° 0 mm 6 mps 751 mmHg 35%
    23:00 +30°C° 0 mm 5 mps 751 mmHg 37%

    Day after tomorrow, 7 April, Tuesday

    Time Temperature Precipitation Wind Pressure Humidity
    00:00 +30°C° 0 mm 4 mps 750 mmHg 41%
    01:00 +29°C° 0 mm 4 mps 750 mmHg 44%
    02:00 +28°C° 0 mm 3 mps 750 mmHg 48%
    03:00 +28°C° 0 mm 3 mps 749 mmHg 51%
    04:00 +27°C° 0 mm 4 mps 749 mmHg 55%
    05:00 +26°C° 0 mm 4 mps 749 mmHg 58%
    06:00 +27°C° 0 mm 4 mps 750 mmHg 56%
    07:00 +28°C° 0 mm 5 mps 750 mmHg 54%
    08:00 +29°C° 0 mm 5 mps 751 mmHg 51%
    09:00 +32°C° 0 mm 5 mps 751 mmHg 42%
    10:00 +35°C° 0 mm 5 mps 751 mmHg 32%
    11:00 +37°C° 0 mm 5 mps 751 mmHg 22%
    12:00 +39°C° 0 mm 6 mps 750 mmHg 21%
    13:00 +40°C° 0 mm 7 mps 749 mmHg 20%
    14:00 +41°C° 0 mm 7 mps 749 mmHg 18%
    15:00 +41°C° 0 mm 8 mps 748 mmHg 19%
    16:00 +40°C° 0 mm 9 mps 748 mmHg 20%
    17:00 +39°C° 0 mm 9 mps 747 mmHg 21%
    18:00 +37°C° 0 mm 9 mps 748 mmHg 30%
    19:00 +34°C° 0 mm 9 mps 748 mmHg 38%
    20:00 +32°C° 0 mm 8 mps 749 mmHg 46%
    21:00 +31°C° 0 mm 8 mps 749 mmHg 51%
    22:00 +29°C° 0 mm 8 mps 749 mmHg 55%
    23:00 +29°C° 0 mm 8 mps 749 mmHg 59%

    8 April, Wednesday

    Time Temperature Precipitation Wind Pressure Humidity
    00:00 +28°C° 0 mm 7 mps 749 mmHg 60%
    01:00 +28°C° 0 mm 6 mps 749 mmHg 61%
    02:00 +28°C° 0 mm 6 mps 749 mmHg 62%
    03:00 +27°C° 0 mm 5 mps 749 mmHg 64%
    04:00 +27°C° 0 mm 5 mps 749 mmHg 66%
    05:00 +26°C° 0 mm 4 mps 749 mmHg 68%
    06:00 +27°C° 0 mm 5 mps 749 mmHg 66%
    07:00 +28°C° 0 mm 5 mps 750 mmHg 64%
    08:00 +28°C° 0 mm 6 mps 750 mmHg 62%
    09:00 +32°C° 0 mm 6 mps 750 mmHg 49%
    10:00 +35°C° 0 mm 6 mps 750 mmHg 36%
    11:00 +39°C° 0 mm 6 mps 750 mmHg 23%
    12:00 +40°C° 0 mm 6 mps 750 mmHg 21%
    13:00 +41°C° 0 mm 7 mps 749 mmHg 19%
    14:00 +43°C° 0 mm 7 mps 749 mmHg 17%
    15:00 +41°C° 0 mm 8 mps 748 mmHg 18%
    16:00 +40°C° 0 mm 8 mps 748 mmHg 20%
    17:00 +39°C° 0 mm 9 mps 748 mmHg 22%
    18:00 +37°C° 0 mm 9 mps 748 mmHg 30%
    19:00 +34°C° 0 mm 9 mps 748 mmHg 39%
    20:00 +31°C° 0 mm 8 mps 749 mmHg 48%
    21:00 +31°C° 0 mm 8 mps 749 mmHg 49%
    22:00 +29°C° 0 mm 7 mps 750 mmHg 51%
    23:00 +29°C° 0 mm 7 mps 750 mmHg 53%

    9 April, Thursday

    Time Temperature Precipitation Wind Pressure Humidity
    00:00 +28°C° 0 mm 6 mps 750 mmHg 53%
    01:00 +28°C° 0 mm 6 mps 749 mmHg 54%
    02:00 +27°C° 0 mm 5 mps 749 mmHg 54%
    03:00 +27°C° 0 mm 5 mps 749 mmHg 54%
    04:00 +27°C° 0 mm 5 mps 749 mmHg 55%
    05:00 +26°C° 0 mm 5 mps 749 mmHg 55%
    06:00 +27°C° 0 mm 5 mps 750 mmHg 49%
    07:00 +29°C° 0 mm 6 mps 750 mmHg 44%
    08:00 +30°C° 0 mm 6 mps 751 mmHg 38%
    09:00 +33°C° 0 mm 6 mps 751 mmHg 31%
    10:00 +36°C° 0 mm 5 mps 751 mmHg 24%
    11:00 +39°C° 0 mm 5 mps 751 mmHg 16%
    12:00 +40°C° 0 mm 5 mps 751 mmHg 16%
    13:00 +40°C° 0 mm 4 mps 750 mmHg 16%
    14:00 +41°C° 0 mm 4 mps 749 mmHg 16%
    15:00 +41°C° 0 mm 5 mps 749 mmHg 17%
    16:00 +41°C° 0 mm 7 mps 749 mmHg 17%
    17:00 +40°C° 0 mm 8 mps 749 mmHg 17%
    18:00 +38°C° 0 mm 8 mps 749 mmHg 25%
    19:00 +35°C° 0 mm 7 mps 749 mmHg 33%
    20:00 +32°C° 0 mm 7 mps 750 mmHg 40%
    21:00 +30°C° 0 mm 7 mps 750 mmHg 46%
    22:00 +30°C° 0 mm 7 mps 750 mmHg 51%
    23:00 +29°C° 0 mm 6 mps 751 mmHg 56%

    10 April, Friday

    Time Temperature Precipitation Wind Pressure Humidity
    00:00 +28°C° 0 mm 6 mps 750 mmHg 57%
    01:00 +28°C° 0 mm 6 mps 750 mmHg 57%
    02:00 +27°C° 0 mm 5 mps 750 mmHg 58%
    03:00 +27°C° 0 mm 5 mps 750 mmHg 61%
    04:00 +27°C° 0 mm 4 mps 750 mmHg 65%
    05:00 +26°C° 0 mm 4 mps 750 mmHg 68%
    06:00 +27°C° 0 mm 4 mps 750 mmHg 60%
    07:00 +28°C° 0 mm 4 mps 751 mmHg 53%
    08:00 +30°C° 0 mm 4 mps 751 mmHg 45%
    09:00 +33°C° 0 mm 3 mps 751 mmHg 36%
    10:00 +35°C° 0 mm 3 mps 751 mmHg 27%
    11:00 +38°C° 0 mm 2 mps 751 mmHg 19%
    12:00 +38°C° 0 mm 3 mps 751 mmHg 19%
    13:00 +39°C° 0 mm 3 mps 750 mmHg 19%
    14:00 +41°C° 0 mm 4 mps 749 mmHg 19%
    15:00 +40°C° 0 mm 4 mps 749 mmHg 20%
    16:00 +40°C° 0 mm 5 mps 749 mmHg 20%
    17:00 +40°C° 0 mm 5 mps 748 mmHg 21%
    18:00 +37°C° 0 mm 5 mps 749 mmHg 26%
    19:00 +36°C° 0 mm 5 mps 749 mmHg 32%
    20:00 +34°C° 0 mm 5 mps 750 mmHg 37%
    21:00 +33°C° 0 mm 5 mps 750 mmHg 41%
    22:00 +32°C° 0 mm 5 mps 750 mmHg 44%
    23:00 +32°C° 0 mm 5 mps 751 mmHg 48%
    Show more